Regional Weather Roundup
Issued by NWS Little Rock, AR

Home | Current Version | Previous Version | Graphics & Text | Print | Product List | Glossary On
Versions: 1 2 3 4 5 6 7 8 9 10 11 12 13 14 15 16 17 18 19 20 21 22 23 24 25 26 27 28 29 30 31 32 33 34 35 36 37 38 39 40 41 42 43 44 45 46 47 48 49 50
000
ASUS44 KLZK 250205
RWRLZK

WEATHER ROUNDUP FOR ARKANSAS
NATIONAL WEATHER SERVICE LITTLE ROCK AR
900 PM CDT SUN MAY 24 2015

NOTE: "FAIR" INDICATES FEW OR NO CLOUDS BELOW 12,000 FEET WITH NO
SIGNIFICANT WEATHER AND/OR OBSTRUCTIONS TO VISIBILITY.

ARZ001-003-010-029-250300-
NORTHWEST ARKANSAS

CITY           SKY/WX    TMP DP  RH WIND       PRES   REMARKS
FAYETTEVILLE   CLOUDY    62  62 100 CALM      29.90R
FORT SMITH     PTCLDY    64  62  93 CALM      29.89R
HARRISON       CLOUDY    66  63  90 W9        29.89R
BENTONVILLE    CLOUDY    63  59  88 S5        29.89R
ROGERS         CLOUDY    62  61  96 S6        29.90R
SILOAM SPGS    CLOUDY    63  55  77 S7        29.90R
HIGHFILL       CLOUDY    63  32  31 S8        29.89R
SPRINGDALE     CLOUDY    63  63 100 S8        29.92R
$$

ARZ004-005-016-250300-
NORTH CENTRAL ARKANSAS

CITY           SKY/WX    TMP DP  RH WIND       PRES   REMARKS
BATESVILLE     CLOUDY    68  64  88 SE6       29.93S
FLIPPIN        MOCLDY    68  64  88 S7        29.86R
MTN HOME       CLOUDY    67  66  97 SE6       29.88R
$$

ARZ040-041-250300-
WEST CENTRAL ARKANSAS

CITY           SKY/WX    TMP DP  RH WIND       PRES   REMARKS
MENA           CLOUDY    70  68  94 CALM      29.92S
MOUNT IDA      LGT RAIN  72  68  87 CALM      29.90R
$$

ARZ009-017-025-026-028-250300-
NORTHEAST ARKANSAS

CITY           SKY/WX    TMP DP  RH WIND       PRES   REMARKS
CORNING        LGT RAIN  68  68 100 S13       29.96S
JONESBORO      LGT RAIN  70  68  93 S15       29.97R
NEWPORT        CLOUDY    71  68  90 S9        29.97R
WALNUT RIDGE     N/A    N/A N/A N/A MISG        N/A
$$

ARZ022-023-033-042-044-250300-
CENTRAL ARKANSAS

CITY           SKY/WX    TMP DP  RH WIND       PRES   REMARKS
LITTLE ROCK    LGT RAIN  72  67  84 S12       29.93R
N LITTLE ROCK  CLOUDY    70  70  98 S9G15     29.93R
JACKSONVILLE   CLOUDY    71  69  95 S6        29.92R
SEARCY         LGT RAIN  70  68  93 SE7       29.95R
HOT SPRINGS    LGT RAIN  72  69  90 S8        29.91R FOG
RUSSELLVILLE   CLOUDY    71  67  87 CALM      29.89S
CLINTON        LGT RAIN  70  68  94 SE7       29.91S
$$

ARZ036-250300-
EAST ARKANSAS

CITY           SKY/WX    TMP DP  RH WIND       PRES   REMARKS
WEST MEMPHIS   CLOUDY    69  67  93 S10       29.98S
$$

ARZ050-053-066-070-073-250300-
SOUTHWEST ARKANSAS

CITY           SKY/WX    TMP DP  RH WIND       PRES   REMARKS
ARKADELPHIA    LGT RAIN  72  72 100 SE3       29.93R
CAMDEN         LGT RAIN  72  68  88 CALM      29.95R
TEXARKANA      CLOUDY    73  68  84 S9        29.91R
EL DORADO      CLOUDY    72  68  87 SE5       29.95S
DE QUEEN       CLOUDY    73  70  90 CALM      29.88R
$$

ARZ056-057-069-250300-
SOUTHEAST ARKANSAS

CITY           SKY/WX    TMP DP  RH WIND       PRES   REMARKS
PINE BLUFF     LGT RAIN  71  70  96 SE10      29.96R
STUTTGART      CLOUDY    73  66  78 MISG      29.96S
MONTICELLO     CLOUDY    72  71  97 S3        29.97R

$$





USA.gov is the U.S. government's official web portal to all federal, state and local government web resources and services.